When you browse on this site, cookies collect data to enhance your experience and personalize the content and advertising you see.
Visit our Privacy Policy to learn more. By continuing to use the site, you agree to this use of cookies and data.
  • en France
  • Liste des pays
  • À 7 jours
  • Température de l'eau
  • Carte satellitaire
  • Carte météo
  • Widgets météo
  • user-avatar
    Se connecter

    Météo par heure à Rangpur

    Ce jour, 24 Janvier, Jeudi

    Heure Température Précipitation Vent Pression Humidité
    00:00 +23°C° 0 mm 2 m/s 758 mmHg 51%
    01:00 +21°C° 0 mm 2 m/s 758 mmHg 53%
    02:00 +20°C° 0 mm 2 m/s 758 mmHg 56%
    03:00 +20°C° 0 mm 2 m/s 758 mmHg 58%
    04:00 +19°C° 0 mm 2 m/s 758 mmHg 58%
    05:00 +19°C° 0 mm 2 m/s 758 mmHg 59%
    06:00 +19°C° 0 mm 2 m/s 758 mmHg 60%
    07:00 +20°C° 0 mm 3 m/s 759 mmHg 57%
    08:00 +21°C° 0 mm 3 m/s 759 mmHg 55%
    09:00 +22°C° 0 mm 4 m/s 760 mmHg 53%
    10:00 +24°C° 0 mm 3 m/s 760 mmHg 48%
    11:00 +26°C° 0 mm 3 m/s 760 mmHg 43%
    12:00 +28°C° 0 mm 3 m/s 760 mmHg 38%
    13:00 +28°C° 0 mm 2 m/s 759 mmHg 37%
    14:00 +28°C° 0 mm 2 m/s 758 mmHg 36%
    15:00 +28°C° 0 mm 2 m/s 758 mmHg 36%
    16:00 +27°C° 0 mm 2 m/s 758 mmHg 37%
    17:00 +26°C° 0 mm 1 m/s 758 mmHg 39%
    18:00 +26°C° 0 mm 1 m/s 758 mmHg 41%
    19:00 +25°C° 0 mm 1 m/s 758 mmHg 43%
    20:00 +24°C° 0 mm 1 m/s 759 mmHg 45%
    21:00 +24°C° 0 mm 1 m/s 759 mmHg 47%
    22:00 +23°C° 0 mm 1 m/s 759 mmHg 49%
    23:00 +23°C° 0 mm 1 m/s 759 mmHg 50%

    Demain, 25 Janvier, Vendredi

    Heure Température Précipitation Vent Pression Humidité
    00:00 +22°C° 0 mm 1 m/s 759 mmHg 52%
    01:00 +21°C° 0 mm 1 m/s 759 mmHg 54%
    02:00 +20°C° 0 mm 2 m/s 759 mmHg 56%
    03:00 +19°C° 0 mm 2 m/s 759 mmHg 58%
    04:00 +19°C° 0 mm 3 m/s 759 mmHg 59%
    05:00 +19°C° 0 mm 3 m/s 759 mmHg 59%
    06:00 +19°C° 0 mm 3 m/s 759 mmHg 60%
    07:00 +20°C° 0 mm 4 m/s 760 mmHg 58%
    08:00 +20°C° 0 mm 4 m/s 760 mmHg 55%
    09:00 +21°C° 0 mm 4 m/s 761 mmHg 53%
    10:00 +23°C° 0 mm 4 m/s 761 mmHg 47%
    11:00 +26°C° 0 mm 4 m/s 761 mmHg 42%
    12:00 +27°C° 0 mm 4 m/s 760 mmHg 37%
    13:00 +28°C° 0 mm 3 m/s 760 mmHg 35%
    14:00 +28°C° 0 mm 3 m/s 759 mmHg 33%
    15:00 +29°C° 0 mm 3 m/s 758 mmHg 31%
    16:00 +28°C° 0 mm 3 m/s 758 mmHg 33%
    17:00 +27°C° 0 mm 2 m/s 758 mmHg 35%
    18:00 +26°C° 0 mm 2 m/s 758 mmHg 37%
    19:00 +25°C° 0 mm 2 m/s 759 mmHg 39%
    20:00 +24°C° 0 mm 2 m/s 759 mmHg 40%
    21:00 +24°C° 0 mm 2 m/s 760 mmHg 42%
    22:00 +23°C° 0 mm 2 m/s 760 mmHg 42%
    23:00 +23°C° 0 mm 2 m/s 759 mmHg 41%

    Après-demain, 26 Janvier, Samedi

    Heure Température Précipitation Vent Pression Humidité
    00:00 +21°C° 0 mm 2 m/s 759 mmHg 40%
    01:00 +21°C° 0 mm 2 m/s 759 mmHg 42%
    02:00 +20°C° 0 mm 2 m/s 759 mmHg 43%
    03:00 +20°C° 0 mm 2 m/s 758 mmHg 44%
    04:00 +20°C° 0 mm 2 m/s 758 mmHg 46%
    05:00 +20°C° 0 mm 2 m/s 758 mmHg 48%
    06:00 +19°C° 0 mm 2 m/s 759 mmHg 49%
    07:00 +20°C° 0 mm 3 m/s 759 mmHg 48%
    08:00 +21°C° 0 mm 3 m/s 760 mmHg 46%
    09:00 +22°C° 0 mm 4 m/s 761 mmHg 45%
    10:00 +22°C° 0 mm 4 m/s 761 mmHg 43%
    11:00 +23°C° 0 mm 5 m/s 761 mmHg 41%
    12:00 +23°C° 0 mm 5 m/s 761 mmHg 39%
    13:00 +23°C° 0 mm 5 m/s 760 mmHg 39%
    14:00 +23°C° 0 mm 5 m/s 760 mmHg 40%
    15:00 +23°C° 0 mm 5 m/s 759 mmHg 40%
    16:00 +23°C° 0 mm 4 m/s 759 mmHg 41%
    17:00 +22°C° 0 mm 4 m/s 759 mmHg 42%
    18:00 +22°C° 0 mm 3 m/s 758 mmHg 43%
    19:00 +22°C° 0 mm 3 m/s 759 mmHg 44%
    20:00 +21°C° 0 mm 2 m/s 759 mmHg 45%
    21:00 +21°C° 0 mm 2 m/s 760 mmHg 45%
    22:00 +21°C° 0 mm 2 m/s 760 mmHg 46%
    23:00 +21°C° 0 mm 2 m/s 760 mmHg 46%

    27 Janvier, Dimanche

    Heure Température Précipitation Vent Pression Humidité
    00:00 +20°C° 0 mm 2 m/s 760 mmHg 46%
    01:00 +20°C° 0 mm 2 m/s 759 mmHg 48%
    02:00 +19°C° 0 mm 3 m/s 759 mmHg 51%
    03:00 +18°C° 0 mm 3 m/s 759 mmHg 53%
    04:00 +18°C° 0 mm 3 m/s 759 mmHg 54%
    05:00 +18°C° 0 mm 2 m/s 759 mmHg 55%
    06:00 +17°C° 0 mm 2 m/s 760 mmHg 55%
    07:00 +19°C° 0 mm 2 m/s 760 mmHg 51%
    08:00 +20°C° 0 mm 3 m/s 761 mmHg 47%
    09:00 +21°C° 0 mm 3 m/s 762 mmHg 43%
    10:00 +24°C° 0 mm 3 m/s 761 mmHg 39%
    11:00 +26°C° 0 mm 3 m/s 761 mmHg 35%
    12:00 +28°C° 0 mm 3 m/s 761 mmHg 31%
    13:00 +28°C° 0 mm 2 m/s 760 mmHg 30%
    14:00 +29°C° 0 mm 2 m/s 759 mmHg 28%
    15:00 +29°C° 0 mm 1 m/s 758 mmHg 27%
    16:00 +28°C° 0 mm 1 m/s 758 mmHg 29%
    17:00 +27°C° 0 mm 1 m/s 758 mmHg 30%
    18:00 +26°C° 0 mm 1 m/s 758 mmHg 32%
    19:00 +26°C° 0 mm 2 m/s 758 mmHg 34%
    20:00 +25°C° 0 mm 2 m/s 759 mmHg 36%
    21:00 +24°C° 0 mm 3 m/s 759 mmHg 38%
    22:00 +22°C° 0 mm 3 m/s 759 mmHg 41%
    23:00 +22°C° 0 mm 3 m/s 759 mmHg 44%

    28 Janvier, Lundi

    Heure Température Précipitation Vent Pression Humidité
    00:00 +21°C° 0 mm 3 m/s 759 mmHg 47%
    01:00 +20°C° 0 mm 2 m/s 759 mmHg 47%
    02:00 +20°C° 0 mm 2 m/s 759 mmHg 46%
    03:00 +19°C° 0 mm 2 m/s 759 mmHg 46%
    04:00 +19°C° 0 mm 2 m/s 759 mmHg 45%
    05:00 +18°C° 0 mm 2 m/s 759 mmHg 43%
    06:00 +18°C° 0 mm 2 m/s 759 mmHg 42%
    07:00 +19°C° 0 mm 2 m/s 760 mmHg 40%
    08:00 +20°C° 0 mm 2 m/s 760 mmHg 37%
    09:00 +21°C° 0 mm 2 m/s 761 mmHg 35%
    10:00 +24°C° 0 mm 2 m/s 761 mmHg 32%
    11:00 +25°C° 0 mm 2 m/s 761 mmHg 30%
    12:00 +27°C° 0 mm 2 m/s 760 mmHg 27%
    13:00 +28°C° 0 mm 2 m/s 760 mmHg 26%
    14:00 +28°C° 0 mm 2 m/s 759 mmHg 25%
    15:00 +29°C° 0 mm 2 m/s 758 mmHg 23%
    16:00 +28°C° 0 mm 2 m/s 758 mmHg 25%
    17:00 +27°C° 0 mm 2 m/s 758 mmHg 26%
    18:00 +26°C° 0 mm 2 m/s 758 mmHg 28%
    19:00 +25°C° 0 mm 3 m/s 758 mmHg 31%
    20:00 +24°C° 0 mm 3 m/s 759 mmHg 35%
    21:00 +22°C° 0 mm 4 m/s 759 mmHg 38%
    22:00 +21°C° 0 mm 4 m/s 759 mmHg 41%
    23:00 +21°C° 0 mm 4 m/s 759 mmHg 44%

    29 Janvier, Mardi

    Heure Température Précipitation Vent Pression Humidité
    00:00 +20°C° 0 mm 4 m/s 759 mmHg 47%
    01:00 +20°C° 0 mm 4 m/s 759 mmHg 49%
    02:00 +19°C° 0 mm 4 m/s 759 mmHg 51%
    03:00 +18°C° 0 mm 3 m/s 759 mmHg 53%
    04:00 +18°C° 0 mm 3 m/s 759 mmHg 56%
    05:00 +17°C° 0 mm 2 m/s 759 mmHg 59%
    06:00 +16°C° 0 mm 2 m/s 759 mmHg 61%
    07:00 +17°C° 0 mm 2 m/s 759 mmHg 57%
    08:00 +18°C° 0 mm 2 m/s 759 mmHg 53%
    09:00 +19°C° 0 mm 2 m/s 760 mmHg 49%
    10:00 +21°C° 0 mm 2 m/s 760 mmHg 43%
    11:00 +23°C° 0 mm 2 m/s 759 mmHg 37%
    12:00 +25°C° 0 mm 2 m/s 759 mmHg 31%
    13:00 +26°C° 0 mm 2 m/s 759 mmHg 27%
    14:00 +26°C° 0 mm 2 m/s 758 mmHg 24%
    15:00 +27°C° 0 mm 2 m/s 757 mmHg 21%
    16:00 +26°C° 0 mm 2 m/s 757 mmHg 22%
    17:00 +25°C° 0 mm 3 m/s 757 mmHg 23%
    18:00 +24°C° 0 mm 3 m/s 757 mmHg 25%
    19:00 +22°C° 0 mm 3 m/s 758 mmHg 29%
    20:00 +21°C° 0 mm 3 m/s 759 mmHg 33%
    21:00 +20°C° 0 mm 4 m/s 759 mmHg 37%
    22:00 +19°C° 0 mm 4 m/s 759 mmHg 41%
    23:00 +19°C° 0 mm 3 m/s 759 mmHg 46%
    Voir plus